EW0758 Weather Reports


time (UTC)temp
F
wind
direction
speed
knots
gust
knots
rain 1hr
in
rain 24hr
in
rain mn
in
humidity
%
barometer
mb
20260505220935 83 28 0.0 11.3 0.00 0.00 0.00 83 1009.5
20260505220844 82 0 8.7 11.3 0.00 0.00 0.00 84 1009.4
20260505220320 82 22 4.3 8.7 0.00 0.00 0.00 83 1009.6
20260505215414 82 20 0.0 7.0 0.00 0.00 0.00 83 1009.4
20260505214903 82 0 0.0 7.0 0.00 0.00 0.00 83 1009.1
20260505214352 82 7 0.0 4.3 0.00 0.00 0.00 83 1009.1
20260505213830 82 353 0.0 7.0 0.00 0.00 0.00 83 1009.2
20260505213328 82 325 4.3 7.0 0.00 0.00 0.00 83 1009.2
20260505212805 83 13 2.6 7.0 0.00 0.00 0.00 82 1009.2
20260505212251 83 4 2.6 7.0 0.00 0.00 0.00 82 1008.9
20260505211731 83 22 1.7 4.3 0.00 0.00 0.00 82 1009.0
20260505211216 83 23 0.9 4.3 0.00 0.00 0.00 82 1009.2
20260505210708 83 26 1.7 4.3 0.00 0.00 0.00 82 1009.3
20260505210206 83 24 1.7 4.3 0.00 0.00 0.00 81 1009.0
20260505205652 83 27 0.0 1.7 0.00 0.00 0.00 82 1008.9
20260505205308 83 24 0.0 4.3 0.00 0.00 0.00 81 1008.9
20260505204457 83 11 1.7 8.7 0.00 0.00 0.00 81 1008.6
20260505203626 83 13 0.9 8.7 0.00 0.00 0.00 81 1008.6
20260505203117 83 24 2.6 7.0 0.00 0.00 0.00 81 1008.7
20260505202938 83 0 4.3 7.0 0.00 0.00 0.00 81 1008.7
20260505202035 83 25 0.0 4.3 0.00 0.00 0.00 81 1008.7
20260505201529 83 11 1.7 7.0 0.00 0.00 0.00 81 1008.4
20260505201401 83 93 1.7 7.0 0.00 0.00 0.00 80 1008.9
20260505200514 83 42 0.9 4.3 0.00 0.00 0.00 81 1008.6
20260505200005 83 26 0.0 1.7 0.00 0.00 0.00 81 1008.7
20260505195449 83 13 1.7 1.7 0.00 0.00 0.00 82 1008.5
20260505194936 83 32 0.0 4.3 0.00 0.00 0.00 83 1008.5
20260505194435 83 37 0.9 4.3 0.00 0.00 0.00 83 1008.5
20260505194032 83 30 0.0 4.3 0.00 0.00 0.00 83 1008.4
20260505192903 83 38 0.0 7.0 0.00 0.00 0.00 83 1008.2
20260505192357 83 69 3.5 7.0 0.00 0.00 0.00 83 1008.4
20260505191848 83 345 0.0 4.3 0.00 0.00 0.00 83 1008.3
20260505191721 83 66 2.6 4.3 0.00 0.00 0.00 83 1008.1
20260505190835 83 31 0.0 1.7 0.00 0.00 0.00 83 1008.1
20260505190325 83 1 0.0 1.7 0.00 0.00 0.00 83 1008.2
20260505190205 83 55 0.0 1.7 0.00 0.00 0.00 83 1008.2
20260505185310 83 18 0.0 4.3 0.00 0.00 0.00 82 1008.1
20260505184759 83 265 0.9 4.3 0.00 0.00 0.00 82 1008.1
20260505184427 84 31 0.0 4.3 0.00 0.00 0.00 81 1008.2
20260505183239 83 349 0.9 7.0 0.00 0.00 0.00 82 1008.3
20260505182728 84 31 0.0 8.7 0.00 0.00 0.00 82 1008.5
20260505182220 84 177 0.0 8.7 0.00 0.00 0.00 82 1008.2
20260505181716 84 31 0.0 8.7 0.00 0.00 0.00 82 1008.3
20260505181205 84 12 0.0 8.7 0.00 0.00 0.00 81 1008.2
20260505181041 84 26 0.0 13.0 0.00 0.00 0.00 81 1008.6
20260505180137 84 44 0.0 13.0 0.00 0.00 0.00 81 1008.6
20260505175631 84 150 1.7 14.8 0.00 0.00 0.00 81 1008.4
20260505175124 84 39 0.0 14.8 0.00 0.00 0.00 80 1008.6
20260505174616 84 12 1.7 14.8 0.00 0.00 0.00 80 1008.8
20260505174109 84 23 0.0 14.8 0.00 0.00 0.00 79 1008.9
20260505173553 85 9 0.0 13.0 0.00 0.00 0.00 79 1008.8
20260505173428 85 58 3.5 13.0 0.00 0.00 0.00 79 1008.9
20260505172531 85 63 2.6 13.0 0.00 0.00 0.00 79 1008.9
20260505172024 85 52 0.0 13.0 0.00 0.00 0.00 79 1008.9
20260505171518 85 27 0.0 13.0 0.00 0.00 0.00 79 1009.0
20260505171000 85 347 0.0 13.0 0.00 0.00 0.00 79 1009.0
20260505170448 85 24 0.0 13.0 0.00 0.00 0.00 78 1009.1
20260505165945 85 34 0.0 11.3 0.00 0.00 0.00 78 1009.1
20260505165853 85 357 1.7 8.7 0.00 0.00 0.00 78 1008.9
20260505165308 85 50 0.0 8.7 0.00 0.00 0.00 78 1008.9
20260505164411 85 47 0.0 4.3 0.00 0.00 0.00 78 1009.0
20260505163858 85 115 0.0 11.3 0.00 0.00 0.00 77 1009.2
20260505163348 85 34 0.0 11.3 0.00 0.00 0.00 78 1009.3
20260505162841 85 206 2.6 7.0 0.00 0.00 0.00 77 1009.2
20260505162333 85 352 0.9 4.3 0.00 0.00 0.00 76 1009.1
20260505161823 85 56 0.0 7.0 0.00 0.00 0.00 76 1009.1
20260505161320 85 7 0.0 14.8 0.00 0.00 0.00 76 1009.3
20260505161136 85 48 0.9 14.8 0.00 0.00 0.00 75 1009.4
20260505160305 86 59 0.9 7.0 0.00 0.00 0.00 75 1009.5
20260505160118 86 38 1.7 7.0 0.00 0.00 0.00 75 1009.4
20260505153154 86 47 0.0 8.7 0.00 0.00 0.00 75 1009.6
20260505153013 86 351 0.0 13.0 0.00 0.00 0.00 75 1009.7
20260505152124 86 57 0.0 13.0 0.00 0.00 0.00 75 1009.6
20260505151605 86 245 0.0 8.7 0.00 0.00 0.00 75 1009.5
20260505151057 86 33 0.0 4.3 0.00 0.00 0.00 75 1009.5
20260505150551 86 335 0.0 4.3 0.00 0.00 0.00 75 1009.7
20260505140354 86 37 0.0 8.7 0.00 0.00 0.00 76 1009.8
20260505130126 86 57 0.0 8.7 0.00 0.00 0.00 75 1009.3
20260505125038 86 38 0.0 4.3 0.00 0.00 0.00 77 1009.3
20260505124523 86 32 0.0 7.0 0.00 0.00 0.00 77 1009.1
20260505124013 86 49 0.0 7.0 0.00 0.00 0.00 77 1009.2
20260505123522 86 59 0.9 7.0 0.00 0.00 0.00 77 1009.3
20260505123002 86 31 0.0 8.7 0.00 0.00 0.00 77 1009.3
20260505122903 86 39 0.0 14.8 0.00 0.00 0.00 77 1009.3
20260505121932 86 56 2.6 14.8 0.00 0.00 0.00 77 1009.2
20260505121426 86 43 0.0 11.3 0.00 0.00 0.00 77 1009.3
20260505120918 86 30 0.0 20.0 0.00 0.00 0.00 77 1009.3
20260505120410 86 68 10.4 20.0 0.00 0.00 0.00 77 1009.1
20260505115907 86 5 0.9 20.0 0.00 0.00 0.00 77 1008.9
20260505115355 86 88 3.5 20.0 0.00 0.00 0.00 77 1008.8
20260505114846 86 30 0.0 28.7 0.00 0.00 0.00 77 1008.7
20260505114340 85 60 4.3 28.7 0.00 0.00 0.00 77 1008.7
20260505113829 86 82 5.2 17.4 0.00 0.00 0.00 77 1008.5
20260505113330 86 76 4.3 21.7 0.00 0.00 0.00 77 1008.5
20260505112807 86 77 12.2 21.7 0.00 0.00 0.00 77 1008.4
20260505112259 86 17 0.9 20.0 0.00 0.00 0.00 77 1008.3
20260505112140 86 51 10.4 20.0 0.00 0.00 0.00 77 1008.6
20260505111247 86 58 5.2 17.4 0.00 0.00 0.00 77 1008.6
20260505110731 86 48 0.9 11.3 0.00 0.00 0.00 77 1008.6
20260505110224 86 70 1.7 11.3 0.00 0.00 0.00 77 1008.4
20260505102133 88 46 9.6 13.0 0.00 0.00 0.00 76 1007.9
20260505101630 88 45 3.5 13.0 0.00 0.00 0.00 75 1008.0
20260505101125 88 23 0.0 13.0 0.00 0.00 0.00 75 1008.1
20260505100600 88 35 5.2 13.0 0.00 0.00 0.00 74 1008.0
20260505095558 89 61 7.8 11.3 0.00 0.00 0.00 73 1007.9
20260505095044 89 67 1.7 8.7 0.00 0.00 0.00 73 1007.9
20260505094539 89 67 5.2 8.7 0.00 0.00 0.00 73 1007.8
20260505094025 89 64 0.9 8.7 0.00 0.00 0.00 73 1007.6
20260505093914 89 69 0.9 7.0 0.00 0.00 0.00 73 1007.4
20260505093350 89 339 1.7 7.0 0.00 0.00 0.00 73 1007.4
20260505092457 89 163 0.9 13.0 0.00 0.00 0.00 72 1007.4
20260505091934 89 317 1.7 17.4 0.00 0.00 0.00 72 1007.5
20260505091433 90 37 0.0 8.7 0.00 0.00 0.00 71 1007.1
20260505091422 90 61 2.6 11.3 0.00 0.00 0.00 71 1007.1
20260505090833 89 281 0.0 14.8 0.00 0.00 0.00 71 1007.3
20260505090254 89 36 3.5 14.8 0.00 0.00 0.00 72 1007.2
20260505085349 90 82 4.3 13.0 0.00 0.00 0.00 72 1007.1
20260505085208 90 42 5.2 13.0 0.00 0.00 0.00 71 1007.0
20260505084314 91 81 0.9 14.8 0.00 0.00 0.00 71 1007.2
20260505084204 91 71 7.8 14.8 0.00 0.00 0.00 71 1007.2
20260505083300 91 15 0.9 7.0 0.00 0.00 0.00 71 1007.2
20260505082755 91 5 0.0 7.0 0.00 0.00 0.00 72 1007.1
20260505082701 91 354 1.7 11.3 0.00 0.00 0.00 71 1007.1
20260505081734 91 10 3.5 14.8 0.00 0.00 0.00 71 1007.0
20260505081225 91 9 6.1 21.7 0.00 0.00 0.00 71 1007.0
20260505080723 92 261 13.0 20.0 0.00 0.00 0.00 70 1007.0
20260505080645 93 351 7.0 21.7 0.00 0.00 0.00 68 1007.2
20260505075639 93 301 8.7 21.7 0.00 0.00 0.00 68 1006.8
20260505075136 93 328 13.0 14.8 0.00 0.00 0.00 68 1006.8
20260505074629 92 315 7.0 17.4 0.00 0.00 0.00 68 1006.8
20260505074117 92 348 5.2 17.4 0.00 0.00 0.00 68 1006.9
20260505073801 92 336 6.1 13.0 0.00 0.00 0.00 68 1006.9
20260505072551 91 30 3.5 13.0 0.00 0.00 0.00 70 1007.1
20260505072034 90 9 2.6 11.3 0.00 0.00 0.00 72 1007.1
20260505071533 89 325 5.2 11.3 0.00 0.00 0.00 73 1007.3
20260505071414 90 335 0.9 11.3 0.00 0.00 0.00 73 1007.2
20260505070516 89 331 3.5 17.4 0.00 0.00 0.00 74 1007.3
20260505070003 89 24 0.0 17.4 0.00 0.00 0.00 75 1007.4
20260505065507 89 18 6.1 14.8 0.00 0.00 0.00 74 1007.3
20260505064947 90 323 11.3 14.8 0.00 0.00 0.00 74 1007.2
20260505064447 90 319 1.7 13.0 0.00 0.00 0.00 74 1007.5
20260505063929 89 8 7.8 13.0 0.00 0.00 0.00 74 1007.4
20260505063423 89 312 5.2 11.3 0.00 0.00 0.00 73 1007.6
20260505062917 89 0 0.0 13.0 0.00 0.00 0.00 74 1007.7
20260505062414 89 5 0.0 14.8 0.00 0.00 0.00 74 1007.7
20260505061902 89 308 10.4 14.8 0.00 0.00 0.00 74 1007.4
20260505061723 89 313 11.3 14.8 0.00 0.00 0.00 74 1007.5
20260505060830 89 13 2.6 11.3 0.00 0.00 0.00 73 1007.4
20260505060325 89 26 0.0 11.3 0.00 0.00 0.00 74 1007.7
20260505055815 89 37 0.0 17.4 0.00 0.00 0.00 73 1007.4
20260505055257 90 46 0.9 17.4 0.00 0.00 0.00 74 1007.7
20260505054759 90 7 8.7 17.4 0.00 0.00 0.00 73 1007.7
20260505054241 91 203 9.6 14.8 0.00 0.00 0.00 71 1007.7
20260505053730 92 37 0.9 14.8 0.00 0.00 0.00 71 1007.8
20260505053227 94 272 1.7 11.3 0.00 0.00 0.00 68 1007.9
20260505052706 92 5 1.7 8.7 0.00 0.00 0.00 70 1008.1
20260505052146 92 293 1.7 14.8 0.00 0.00 0.00 70 1008.0
20260505051726 92 60 0.9 14.8 0.00 0.00 0.00 71 1008.0
20260505051637 91 333 7.0 14.8 0.00 0.00 0.00 72 1007.9
20260505051056 91 38 7.8 14.8 0.00 0.00 0.00 71 1008.1
20260505050113 90 355 5.2 13.0 0.00 0.00 0.00 71 1008.4
20260505041507 90 321 1.7 13.0 0.00 0.00 0.00 71 1008.9
20260505041000 91 292 3.5 14.8 0.00 0.00 0.00 71 1008.8
20260505040441 91 309 7.8 14.8 0.00 0.00 0.00 71 1008.9
20260505035937 91 2 5.2 17.4 0.00 0.00 0.00 70 1008.9
20260505035423 92 191 7.0 17.4 0.00 0.00 0.00 69 1008.9
20260505034915 92 114 5.2 13.0 0.00 0.00 0.00 68 1008.9
20260505034406 92 215 9.6 17.4 0.00 0.00 0.00 70 1009.2
20260505033856 90 178 6.1 17.4 0.00 0.00 0.00 71 1009.1
20260505033400 89 287 5.2 17.4 0.00 0.00 0.00 71 1009.4
20260505032845 89 227 10.4 14.8 0.00 0.00 0.00 72 1009.4
20260505032334 89 298 5.2 13.0 0.00 0.00 0.00 73 1009.4
20260505031828 89 166 2.6 11.3 0.00 0.00 0.00 72 1009.4
20260505031326 88 7 1.7 17.4 0.00 0.00 0.00 73 1009.5
20260505030816 89 195 7.8 17.4 0.00 0.00 0.00 74 1009.5
20260505030310 88 220 2.6 8.7 0.00 0.00 0.00 73 1009.6
20260505025806 88 260 4.3 8.7 0.00 0.00 0.00 74 1009.5
20260505025245 88 25 0.0 8.7 0.00 0.00 0.00 74 1009.9
20260505024732 87 352 1.7 13.0 0.00 0.00 0.00 75 1009.7
20260505024223 87 27 0.0 13.0 0.00 0.00 0.00 76 1009.8
20260505023719 88 76 0.9 17.4 0.00 0.00 0.00 75 1009.8
20260505023540 87 205 1.7 21.7 0.00 0.00 0.00 75 1009.8
20260505022715 87 208 13.9 26.1 0.00 0.00 0.00 77 1009.7
20260505022200 89 109 6.1 26.1 0.00 0.00 0.00 75 1009.9
20260505021643 89 23 1.7 13.0 0.00 0.00 0.00 74 1009.8
20260505021132 86 12 1.7 13.0 0.00 0.00 0.00 76 1009.8
20260505020627 87 355 7.0 13.0 0.00 0.00 0.00 75 1010.0
20260505020113 86 17 1.7 13.0 0.00 0.00 0.00 77 1010.1
20260505020001 86 335 1.7 13.0 0.00 0.00 0.00 77 1010.1
20260505015059 85 38 2.6 13.0 0.00 0.00 0.00 78 1010.0
20260505015002 86 211 1.7 13.0 0.00 0.00 0.00 78 1010.2
20260505014431 86 16 3.5 13.0 0.00 0.00 0.00 78 1010.1
20260505013534 86 4 4.3 13.0 0.00 0.00 0.00 78 1010.1
20260505013025 87 334 9.6 13.0 0.00 0.00 0.00 77 1010.3
20260505012519 87 11 0.9 11.3 0.00 0.00 0.00 76 1010.2
20260505012018 87 347 4.3 13.0 0.00 0.00 0.00 76 1010.2
20260505011520 89 336 7.0 11.3 0.00 0.00 0.00 75 1009.9
20260505011000 88 39 0.0 14.8 0.00 0.00 0.00 75 1010.2
20260505010436 87 3 7.8 14.8 0.00 0.00 0.00 77 1010.2
20260505005931 86 147 0.9 14.8 0.00 0.00 0.00 77 1010.3
20260505005428 87 32 4.3 14.8 0.00 0.00 0.00 76 1010.4
20260505004924 87 28 0.0 14.8 0.00 0.00 0.00 76 1010.3
20260505004415 87 6 1.7 13.0 0.00 0.00 0.00 76 1010.2
20260505003908 87 5 0.0 11.3 0.00 0.00 0.00 76 1010.4
20260505003402 87 195 7.8 14.8 0.00 0.00 0.00 76 1010.4
20260505002856 87 168 7.0 14.8 0.00 0.00 0.00 76 1010.4
20260505002335 87 224 6.1 13.0 0.00 0.00 0.00 77 1010.3
20260505001839 87 20 1.7 8.7 0.00 0.00 0.00 73 1010.1
20260505001826 87 319 8.7 11.3 0.00 0.00 0.00 74 1010.2
20260505000810 86 46 0.9 8.7 0.00 0.00 0.00 74 1010.2
20260505000713 86 38 0.0 8.7 0.00 0.00 0.00 74 1010.2
20260504235748 86 21 3.5 8.7 0.00 0.00 0.00 74 1010.3
20260504235237 87 347 4.3 7.0 0.00 0.00 0.00 75 1010.1
20260504234728 88 51 0.0 0.0 0.00 0.00 0.00 73 1010.4
20260504234223 87 39 0.0 7.0 0.00 0.00 0.00 74 1010.2
20260504233717 86 34 0.0 11.3 0.00 0.00 0.00 75 1010.2
20260504233213 85 157 3.5 11.3 0.00 0.00 0.00 77 1010.1
20260504232649 85 221 2.6 11.3 0.00 0.00 0.00 78 1010.0
20260504232138 85 207 2.6 7.0 0.00 0.00 0.00 78 1010.1
20260504231629 86 41 0.0 7.0 0.00 0.00 0.00 76 1010.3
20260504231135 85 63 1.7 7.0 0.00 0.00 0.00 77 1010.2
20260504231020 84 48 0.0 8.7 0.00 0.00 0.00 78 1010.0
20260504230111 85 175 0.9 7.0 0.00 0.00 0.00 78 1010.0
20260504225556 85 74 0.0 7.0 0.00 0.00 0.00 77 1010.0
20260504225031 85 32 0.0 4.3 0.00 0.00 0.00 78 1010.2
20260504224523 84 41 0.0 1.7 0.00 0.00 0.00 77 1009.9
20260504224031 85 22 0.0 0.0 0.00 0.00 0.00 76 1010.1
20260504223508 84 19 0.0 0.0 0.00 0.00 0.00 78 1009.9
20260504222946 85 42 0.0 0.0 0.00 0.00 0.00 77 1009.9
20260504222438 84 35 0.0 0.0 0.00 0.00 0.00 78 1009.8
20260504222047 83 32 0.0 0.0 0.00 0.00 0.00 79 1009.9